Time,TemperatureF,DewpointF,PressureIn,WindDirection,WindDirectionDegrees,WindSpeedMPH,WindSpeedGustMPH,Humidity,HourlyPrecipIn,Conditions,Clouds,dailyrainin,SoftwareType,DateUTC
2013-09-28 00:05:00,58.3,54.0,30.30,NNW,341,0.0,0.0,85,0.00,,,0.00,weatherlink.com 1.10,2013-09-28 04:05:00,
2013-09-28 00:20:00,58.0,54.0,30.30,NNW,341,0.0,0.0,86,0.00,,,0.00,weatherlink.com 1.10,2013-09-28 04:20:00,
2013-09-28 00:35:00,57.9,54.0,30.30,NNW,341,0.0,0.0,86,0.00,,,0.00,weatherlink.com 1.10,2013-09-28 04:35:00,
2013-09-28 00:50:00,57.8,54.0,30.29,NNW,341,0.0,0.0,86,0.00,,,0.00,weatherlink.com 1.10,2013-09-28 04:50:00,
2013-09-28 01:05:00,58.0,54.0,30.30,NNW,342,0.0,0.0,86,0.00,,,0.00,weatherlink.com 1.10,2013-09-28 05:05:00,
2013-09-28 01:20:00,58.0,54.0,30.30,NNW,341,0.0,1.0,86,0.00,,,0.00,weatherlink.com 1.10,2013-09-28 05:20:00,
2013-09-28 01:35:00,57.8,54.0,30.30,NNW,340,0.0,1.0,86,0.00,,,0.00,weatherlink.com 1.10,2013-09-28 05:35:00,
2013-09-28 01:50:00,57.7,53.0,30.30,NNW,340,0.0,1.0,85,0.00,,,0.00,weatherlink.com 1.10,2013-09-28 05:50:00,
2013-09-28 02:05:00,57.2,53.0,30.30,NNW,340,0.0,0.0,86,0.00,,,0.00,weatherlink.com 1.10,2013-09-28 06:05:00,
2013-09-28 02:20:00,56.3,53.0,30.30,NNW,340,0.0,0.0,87,0.00,,,0.00,weatherlink.com 1.10,2013-09-28 06:20:00,
2013-09-28 02:35:00,55.2,52.0,30.30,NNW,340,0.0,0.0,89,0.00,,,0.00,weatherlink.com 1.10,2013-09-28 06:35:00,
2013-09-28 02:50:00,54.3,52.0,30.30,NNW,340,0.0,0.0,90,0.00,,,0.00,weatherlink.com 1.10,2013-09-28 06:50:00,
2013-09-28 03:05:00,53.7,52.0,30.30,NNW,340,0.0,0.0,92,0.00,,,0.00,weatherlink.com 1.10,2013-09-28 07:05:00,
2013-09-28 03:20:00,53.4,51.0,30.30,NNW,340,0.0,0.0,92,0.00,,,0.00,weatherlink.com 1.10,2013-09-28 07:20:00,
2013-09-28 03:35:00,53.0,51.0,30.30,NNW,340,0.0,0.0,93,0.00,,,0.00,weatherlink.com 1.10,2013-09-28 07:35:00,
2013-09-28 03:50:00,52.7,51.0,30.30,NNW,340,0.0,0.0,93,0.00,,,0.00,weatherlink.com 1.10,2013-09-28 07:50:00,
2013-09-28 04:05:00,52.3,50.0,30.30,NNW,340,0.0,0.0,93,0.00,,,0.00,weatherlink.com 1.10,2013-09-28 08:05:00,
2013-09-28 04:20:00,52.0,50.0,30.30,NNW,340,0.0,0.0,94,0.00,,,0.00,weatherlink.com 1.10,2013-09-28 08:20:00,
2013-09-28 04:35:00,51.8,50.0,30.30,NNW,340,0.0,0.0,94,0.00,,,0.00,weatherlink.com 1.10,2013-09-28 08:35:00,
2013-09-28 04:50:00,51.7,50.0,30.30,NNW,340,0.0,0.0,94,0.00,,,0.00,weatherlink.com 1.10,2013-09-28 08:50:00,
2013-09-28 05:05:00,51.6,50.0,30.31,NNW,340,0.0,0.0,95,0.00,,,0.00,weatherlink.com 1.10,2013-09-28 09:05:00,
2013-09-28 05:20:00,51.3,50.0,30.31,NNW,340,0.0,0.0,94,0.00,,,0.00,weatherlink.com 1.10,2013-09-28 09:20:00,
2013-09-28 05:35:00,51.0,50.0,30.31,NNW,340,0.0,0.0,95,0.00,,,0.00,weatherlink.com 1.10,2013-09-28 09:35:00,
2013-09-28 05:50:00,50.7,49.0,30.32,NNW,340,0.0,0.0,95,0.00,,,0.00,weatherlink.com 1.10,2013-09-28 09:50:00,
2013-09-28 06:05:00,50.8,50.0,30.32,NNW,340,0.0,0.0,96,0.00,,,0.00,weatherlink.com 1.10,2013-09-28 10:05:00,
2013-09-28 06:20:00,51.0,50.0,30.32,NNW,340,0.0,0.0,95,0.00,,,0.00,weatherlink.com 1.10,2013-09-28 10:20:00,
2013-09-28 06:35:00,50.6,49.0,30.33,NNW,340,0.0,0.0,95,0.00,,,0.00,weatherlink.com 1.10,2013-09-28 10:35:00,
2013-09-28 06:50:00,50.4,49.0,30.33,NNW,340,0.0,0.0,95,0.00,,,0.00,weatherlink.com 1.10,2013-09-28 10:50:00,
2013-09-28 07:05:00,49.7,48.0,30.34,NNW,340,0.0,0.0,95,0.00,,,0.00,weatherlink.com 1.10,2013-09-28 11:05:00,
2013-09-28 07:20:00,49.7,49.0,30.34,NNW,340,0.0,0.0,96,0.00,,,0.00,weatherlink.com 1.10,2013-09-28 11:20:00,
2013-09-28 07:35:00,50.4,50.0,30.34,NNW,340,0.0,0.0,97,0.00,,,0.00,weatherlink.com 1.10,2013-09-28 11:35:00,
2013-09-28 07:50:00,51.5,50.0,30.34,NNW,340,0.0,1.0,96,0.00,,,0.00,weatherlink.com 1.10,2013-09-28 11:50:00,
2013-09-28 08:05:00,52.8,51.0,30.35,NNW,340,0.0,1.0,94,0.00,,,0.00,weatherlink.com 1.10,2013-09-28 12:05:00,
2013-09-28 08:20:00,54.2,52.0,30.35,NNW,340,0.0,1.0,91,0.00,,,0.00,weatherlink.com 1.10,2013-09-28 12:20:00,
2013-09-28 08:35:00,55.4,52.0,30.35,North,352,0.0,1.0,88,0.00,,,0.00,weatherlink.com 1.10,2013-09-28 12:35:00,
2013-09-28 08:50:00,56.1,52.0,30.35,NNW,342,0.0,1.0,87,0.00,,,0.00,weatherlink.com 1.10,2013-09-28 12:50:00,
2013-09-28 09:05:00,56.9,53.0,30.35,North,4,0.0,2.0,86,0.00,,,0.00,weatherlink.com 1.10,2013-09-28 13:05:00,
2013-09-28 09:20:00,57.8,53.0,30.36,NNW,345,0.0,1.0,85,0.00,,,0.00,weatherlink.com 1.10,2013-09-28 13:20:00,
2013-09-28 09:35:00,58.9,53.0,30.36,NNE,30,0.0,1.0,82,0.00,,,0.00,weatherlink.com 1.10,2013-09-28 13:35:00,
2013-09-28 09:50:00,59.9,53.0,30.36,NNW,339,0.0,2.0,79,0.00,,,0.00,weatherlink.com 1.10,2013-09-28 13:50:00,
2013-09-28 10:06:00,60.8,54.0,30.36,NE,34,0.0,2.0,77,0.00,,,0.00,weatherlink.com 1.10,2013-09-28 14:06:00,
2013-09-28 10:21:00,61.8,54.0,30.36,East,81,1.0,3.0,75,0.00,,,0.00,weatherlink.com 1.10,2013-09-28 14:21:00,
2013-09-28 10:36:00,62.5,53.0,30.36,NE,39,0.0,4.0,72,0.00,,,0.00,weatherlink.com 1.10,2013-09-28 14:36:00,
2013-09-28 10:51:00,63.5,54.0,30.36,NNE,18,1.0,4.0,70,0.00,,,0.00,weatherlink.com 1.10,2013-09-28 14:51:00,
2013-09-28 11:06:00,64.6,54.0,30.36,NNW,343,0.0,5.0,68,0.00,,,0.00,weatherlink.com 1.10,2013-09-28 15:06:00,
2013-09-28 11:21:00,65.9,54.0,30.36,NNE,19,0.0,3.0,66,0.00,,,0.00,weatherlink.com 1.10,2013-09-28 15:21:00,
2013-09-28 11:36:00,66.2,54.0,30.35,NNW,343,1.0,2.0,65,0.00,,,0.00,weatherlink.com 1.10,2013-09-28 15:36:00,
2013-09-28 11:51:00,67.2,54.0,30.35,ESE,108,0.0,5.0,63,0.00,,,0.00,weatherlink.com 1.10,2013-09-28 15:51:00,
2013-09-28 12:06:00,68.5,52.0,30.35,NE,51,0.0,4.0,57,0.00,,,0.00,weatherlink.com 1.10,2013-09-28 16:06:00,
2013-09-28 12:21:00,69.8,55.0,30.35,WNW,302,0.0,4.0,59,0.00,,,0.00,weatherlink.com 1.10,2013-09-28 16:21:00,
2013-09-28 12:36:00,70.6,54.0,30.34,ENE,74,0.0,2.0,56,0.00,,,0.00,weatherlink.com 1.10,2013-09-28 16:36:00,
2013-09-28 12:51:00,70.4,55.0,30.34,ENE,75,1.0,3.0,58,0.00,,,0.00,weatherlink.com 1.10,2013-09-28 16:51:00,
2013-09-28 13:06:00,71.1,56.0,30.33,SW,226,0.0,3.0,59,0.00,,,0.00,weatherlink.com 1.10,2013-09-28 17:06:00,
2013-09-28 13:21:00,72.0,53.0,30.33,WSW,244,2.0,2.0,52,0.00,,,0.00,weatherlink.com 1.10,2013-09-28 17:21:00,
2013-09-28 13:36:00,71.9,54.0,30.32,NE,46,0.0,2.0,54,0.00,,,0.00,weatherlink.com 1.10,2013-09-28 17:36:00,
2013-09-28 13:51:00,71.6,55.0,30.31,NW,309,0.0,2.0,56,0.00,,,0.00,weatherlink.com 1.10,2013-09-28 17:51:00,
2013-09-28 14:06:00,70.4,54.0,30.31,West,278,0.0,3.0,56,0.00,,,0.00,weatherlink.com 1.10,2013-09-28 18:06:00,
2013-09-28 14:21:00,72.3,55.0,30.30,ESE,113,1.0,3.0,54,0.00,,,0.00,weatherlink.com 1.10,2013-09-28 18:21:00,
2013-09-28 14:36:00,72.5,54.0,30.30,North,352,0.0,2.0,53,0.00,,,0.00,weatherlink.com 1.10,2013-09-28 18:36:00,
2013-09-28 14:51:00,72.2,53.0,30.30,ENE,68,1.0,2.0,52,0.00,,,0.00,weatherlink.com 1.10,2013-09-28 18:51:00,
2013-09-28 15:06:00,70.1,54.0,30.30,ENE,66,0.0,1.0,56,0.00,,,0.00,weatherlink.com 1.10,2013-09-28 19:06:00,
2013-09-28 15:21:00,71.4,54.0,30.29,NNE,18,0.0,4.0,54,0.00,,,0.00,weatherlink.com 1.10,2013-09-28 19:21:00,
2013-09-28 15:36:00,71.0,55.0,30.29,NNW,337,0.0,1.0,57,0.00,,,0.00,weatherlink.com 1.10,2013-09-28 19:36:00,
2013-09-28 15:51:00,71.5,53.0,30.29,SE,137,1.0,1.0,52,0.00,,,0.00,weatherlink.com 1.10,2013-09-28 19:51:00,
2013-09-28 16:06:00,70.7,55.0,30.29,SE,136,0.0,1.0,57,0.00,,,0.00,weatherlink.com 1.10,2013-09-28 20:06:00,
2013-09-28 16:21:00,71.2,55.0,30.28,WNW,301,0.0,1.0,56,0.00,,,0.00,weatherlink.com 1.10,2013-09-28 20:21:00,
2013-09-28 16:36:00,71.5,53.0,30.28,NE,41,2.0,2.0,53,0.00,,,0.00,weatherlink.com 1.10,2013-09-28 20:36:00,
2013-09-28 16:51:00,69.8,54.0,30.28,NE,54,0.0,1.0,58,0.00,,,0.00,weatherlink.com 1.10,2013-09-28 20:51:00,
2013-09-28 17:06:00,69.2,55.0,30.28,ESE,122,2.0,2.0,60,0.00,,,0.00,weatherlink.com 1.10,2013-09-28 21:06:00,
2013-09-28 17:21:00,68.8,55.0,30.29,SSW,210,0.0,2.0,62,0.00,,,0.00,weatherlink.com 1.10,2013-09-28 21:21:00,
2013-09-28 17:36:00,68.4,54.0,30.29,West,264,0.0,1.0,61,0.00,,,0.00,weatherlink.com 1.10,2013-09-28 21:36:00,
2013-09-28 17:51:00,67.9,54.0,30.28,West,264,0.0,0.0,61,0.00,,,0.00,weatherlink.com 1.10,2013-09-28 21:51:00,
2013-09-28 18:06:00,67.2,54.0,30.29,West,270,0.0,1.0,62,0.00,,,0.00,weatherlink.com 1.10,2013-09-28 22:06:00,
2013-09-28 18:21:00,66.4,53.0,30.28,West,270,0.0,0.0,63,0.00,,,0.00,weatherlink.com 1.10,2013-09-28 22:21:00,
2013-09-28 18:36:00,65.1,54.0,30.29,West,270,0.0,0.0,67,0.00,,,0.00,weatherlink.com 1.10,2013-09-28 22:36:00,
2013-09-28 18:51:00,63.4,53.0,30.28,West,269,0.0,0.0,70,0.00,,,0.00,weatherlink.com 1.10,2013-09-28 22:51:00,
2013-09-28 19:06:00,61.7,54.0,30.28,West,270,0.0,0.0,76,0.00,,,0.00,weatherlink.com 1.10,2013-09-28 23:06:00,
2013-09-28 19:21:00,60.2,54.0,30.28,West,270,0.0,0.0,79,0.00,,,0.00,weatherlink.com 1.10,2013-09-28 23:21:00,
2013-09-28 19:36:00,59.1,53.0,30.28,West,270,0.0,0.0,81,0.00,,,0.00,weatherlink.com 1.10,2013-09-28 23:36:00,
2013-09-28 19:52:00,58.3,53.0,30.28,West,270,0.0,0.0,81,0.00,,,0.00,weatherlink.com 1.10,2013-09-28 23:52:00,
2013-09-28 20:07:00,57.6,53.0,30.28,West,270,0.0,0.0,83,0.00,,,0.00,weatherlink.com 1.10,2013-09-29 00:07:00,
2013-09-28 20:22:00,56.8,53.0,30.28,West,270,0.0,0.0,86,0.00,,,0.00,weatherlink.com 1.10,2013-09-29 00:22:00,
2013-09-28 20:37:00,56.2,52.0,30.28,West,270,0.0,0.0,86,0.00,,,0.00,weatherlink.com 1.10,2013-09-29 00:37:00,
2013-09-28 20:52:00,56.1,52.0,30.28,West,270,0.0,0.0,87,0.00,,,0.00,weatherlink.com 1.10,2013-09-29 00:52:00,
2013-09-28 21:07:00,55.5,52.0,30.28,West,270,0.0,0.0,87,0.00,,,0.00,weatherlink.com 1.10,2013-09-29 01:07:00,
2013-09-28 21:22:00,54.9,52.0,30.29,West,270,0.0,0.0,89,0.00,,,0.00,weatherlink.com 1.10,2013-09-29 01:22:00,
2013-09-28 21:36:00,54.5,52.0,30.29,SSE,166,2.0,2.0,90,0.00,,,0.00,weatherlink.com 1.10,2013-09-29 01:36:00,
2013-09-28 21:51:00,55.2,52.0,30.29,SE,131,0.0,0.0,90,0.00,,,0.00,weatherlink.com 1.10,2013-09-29 01:51:00,
2013-09-28 22:06:00,55.1,52.0,30.29,SE,131,0.0,0.0,90,0.00,,,0.00,weatherlink.com 1.10,2013-09-29 02:06:00,
2013-09-28 22:21:00,55.1,52.0,30.29,SE,131,0.0,0.0,90,0.00,,,0.00,weatherlink.com 1.10,2013-09-29 02:21:00,
2013-09-28 22:36:00,55.4,52.0,30.29,SE,131,0.0,0.0,89,0.00,,,0.00,weatherlink.com 1.10,2013-09-29 02:36:00,
2013-09-28 22:51:00,55.0,52.0,30.29,SE,131,0.0,0.0,89,0.00,,,0.00,weatherlink.com 1.10,2013-09-29 02:51:00,
2013-09-28 23:06:00,54.9,52.0,30.28,SE,131,0.0,0.0,90,0.00,,,0.00,weatherlink.com 1.10,2013-09-29 03:06:00,
2013-09-28 23:21:00,54.8,52.0,30.28,SE,131,0.0,0.0,90,0.00,,,0.00,weatherlink.com 1.10,2013-09-29 03:21:00,
2013-09-28 23:36:00,54.5,52.0,30.28,SE,131,0.0,0.0,90,0.00,,,0.00,weatherlink.com 1.10,2013-09-29 03:36:00,
2013-09-28 23:51:00,53.7,51.0,30.27,SE,131,0.0,0.0,91,0.00,,,0.00,weatherlink.com 1.10,2013-09-29 03:51:00,